EHI
0 0 0 0 0 0 0 0 0 0 0 0 0 0 0 0 0 0 0 0 0 0 0 0 6 23 45 61 61 49 37 40 47 44 34 22 10 3 1 0 0 0 0 0
0 0 0 0 0 0 0 0 0 0 0 0 0 0 0 0 0 0 0 0 0 0 0 1 9 26 46 60 60 47 38 47 60 59 49 35 19 10 7 3 0 0 0 0
0 0 0 0 0 0 0 0 0 0 0 0 0 0 0 0 0 0 0 0 0 0 2 6 16 32 47 58 58 51 51 64 73 72 65 51 33 23 18 9 3 1 0 1
0 0 0 0 0 0 0 0 0 0 0 0 0 0 0 0 0 0 0 0 0 1 4 9 18 30 41 47 48 52 61 71 74 72 69 59 44 34 25 13 6 2 1 2
0 0 0 0 0 0 0 0 0 0 0 0 0 0 0 0 0 0 0 0 0 0 2 6 11 16 22 26 29 36 45 52 55 57 60 55 44 33 23 16 10 6 3 3
0 0 0 0 0 0 0 0 0 0 0 0 0 0 0 0 0 0 0 0 0 0 0 1 3 4 5 7 10 14 19 21 24 30 37 38 33 26 20 16 13 8 4 3
0 0 0 0 0 0 0 0 0 0 0 0 0 0 0 0 0 0 0 0 0 0 0 0 0 0 0 0 1 2 3 3 4 9 14 17 19 16 12 10 9 6 3 2
0 0 0 0 0 0 0 0 0 0 0 0 0 0 0 0 0 0 0 0 0 0 0 0 0 0 0 0 0 0 0 0 0 1 2 4 6 5 4 3 4 2 2 3
0 0 0 0 0 0 0 0 0 0 0 0 0 0 0 0 0 0 0 0 0 0 0 0 0 0 0 0 0 0 0 0 0 0 0 0 0 0 0 1 1 1 1 3
0 0 0 0 0 0 0 0 0 0 0 0 0 0 0 0 0 0 0 0 0 0 0 0 0 0 0 0 0 0 0 0 0 0 0 0 0 0 0 0 0 0 0 1
0 0 0 0 0 0 0 0 0 0 0 0 0 0 0 0 0 0 0 0 0 0 0 0 0 0 0 0 0 0 0 0 0 0 0 0 0 0 0 0 0 0 0 0
0 0 0 0 0 0 0 0 0 0 0 0 0 0 0 0 0 0 0 0 0 0 0 0 0 0 0 0 0 0 0 0 0 0 0 0 0 0 0 0 0 0 0 0
0 0 0 0 0 0 0 0 0 0 0 0 0 0 0 0 0 0 0 0 0 0 0 0 0 0 0 0 0 0 0 0 0 0 0 0 0 0 0 0 0 0 0 0
0 0 0 0 0 0 0 0 0 0 0 0 0 0 0 0 0 0 0 0 0 0 0 0 0 0 0 0 0 0 0 0 0 0 0 0 0 0 0 0 0 0 0 0
0 0 0 0 0 0 0 0 0 0 0 0 0 0 0 0 0 0 0 0 0 0 0 0 0 0 0 0 0 0 0 0 0 0 0 0 0 0 0 0 0 0 0 0
0 0 0 0 0 0 0 0 0 0 0 0 0 0 0 0 0 0 0 0 0 0 0 0 0 0 0 0 0 0 0 0 0 0 0 0 0 0 0 0 0 0 0 0
0 0 0 0 0 0 0 0 0 0 0 0 0 0 0 0 0 0 0 0 0 0 0 0 0 0 0 0 0 0 0 0 0 0 0 0 0 0 0 0 0 0 0 0
0 0 0 0 0 0 0 0 0 0 0 0 0 0 0 0 0 0 0 0 0 0 0 0 0 0 0 0 0 0 0 0 0 0 0 0 0 0 0 0 0 0 0 0
0 0 0 0 0 0 0 0 0 0 0 0 0 0 0 0 0 0 0 0 0 0 0 0 0 0 0 0 0 0 0 0 0 0 0 0 0 0 0 0 0 0 0 0
0 0 0 0 0 0 0 0 0 0 0 0 0 0 0 0 0 0 0 0 0 0 0 0 0 0 0 0 0 0 0 0 0 0 0 0 0 0 0 0 0 0 0 0
0 0 0 0 0 0 0 0 0 0 0 0 0 0 0 0 0 0 0 0 0 0 0 0 0 0 0 0 0 0 0 0 0 0 0 0 0 0 0 0 0 0 0 0
0 0 0 0 0 0 0 0 0 0 0 0 0 0 0 0 0 0 0 0 0 0 0 0 0 0 0 0 0 0 0 0 0 0 0 0 0 0 0 0 0 0 0 0
0 0 0 0 0 0 0 0 0 0 0 0 0 0 0 0 0 0 0 0 0 0 0 0 0 0 0 0 0 0 0 0 0 0 0 0 0 0 0 0 0 0 0 0
0 0 0 0 0 0 0 0 0 0 0 0 0 0 0 0 0 0 0 0 0 0 0 0 0 0 0 0 0 0 0 0 0 0 0 0 0 0 0 0 0 0 0 0
0 0 0 0 0 0 0 0 0 0 0 0 0 0 0 0 0 0 0 0 0 0 0 0 0 0 0 0 0 0 0 0 0 0 0 0 0 0 0 0 0 0 0 0
0 0 0 0 0 0 0 0 0 0 0 0 0 0 0 0 0 0 0 0 0 0 0 0 0 0 0 0 0 0 0 0 0 0 0 0 0 0 0 0 0 0 0 0
0 0 0 0 0 0 0 0 0 0 0 0 0 0 0 0 0 0 0 0 0 0 0 0 0 0 0 0 0 0 0 0 0 0 0 0 0 0 0 0 0 0 0 0
Wind_Speed
9 9 7 9 10 10 11 9 8 9 11 11 15 17 18 16 15 13 12 10 9 8 6 5 7 8 8 9 9 10 10 9 9 8 7 7 7 8 8 8 8 8 8 8
10 9 9 11 10 9 7 6 6 8 9 14 19 17 15 14 12 11 10 9 7 6 5 4 5 6 7 8 8 8 9 8 7 7 7 7 8 8 8 8 8 8 8 8
8 9 11 5 4 4 9 12 9 9 13 19 20 18 13 11 10 8 7 5 3 2 2 1 3 5 6 6 6 6 7 6 6 7 8 8 8 8 8 9 9 9 9 9
7 8 4 7 10 8 9 15 15 13 15 17 20 14 8 12 11 8 5 4 5 6 7 6 6 6 5 5 4 4 4 5 5 6 7 7 8 9 9 8 8 9 9 9
4 6 3 7 12 13 5 7 18 19 20 22 23 7 10 18 15 9 7 7 8 8 9 9 9 8 7 6 4 2 0 2 4 5 6 7 8 9 8 8 9 9 9 9
4 5 2 11 20 18 7 2 20 22 22 23 22 12 12 18 13 7 6 7 7 8 10 10 9 8 8 8 7 6 4 2 2 3 5 6 7 7 7 7 8 8 8 9
5 4 6 13 20 13 4 10 19 20 20 19 17 13 16 15 6 4 5 5 6 8 9 9 8 8 9 9 8 7 5 5 3 1 2 3 4 5 6 6 7 8 8 8
7 5 6 15 14 10 9 14 18 19 19 19 19 18 14 9 2 2 3 4 5 7 8 7 7 8 9 8 6 5 5 5 5 4 2 1 2 3 4 6 7 7 7 7
5 3 5 8 6 7 10 16 18 20 20 20 20 18 14 7 1 3 3 3 4 6 7 6 6 6 7 6 4 5 5 5 5 4 4 3 2 2 3 4 4 5 6 6
6 4 9 8 7 11 14 17 19 19 20 19 19 18 14 7 3 4 4 4 4 4 5 5 4 4 5 4 3 4 5 5 4 4 4 4 3 1 1 2 3 4 4 5
8 9 11 8 14 15 16 18 19 20 19 18 18 17 14 8 4 5 5 5 4 4 3 3 2 2 2 2 3 4 4 4 4 4 4 4 5 5 3 3 2 1 1 2
7 11 12 15 15 16 16 17 18 20 20 18 16 15 13 8 4 5 6 6 5 5 4 2 1 0 1 1 3 4 4 4 3 3 3 3 3 5 10 8 7 7 6 4
9 13 14 15 14 15 15 17 18 18 18 18 15 13 12 8 4 5 7 7 7 6 5 4 2 2 1 1 1 2 3 2 2 2 2 2 2 3 4 6 9 10 9 8
9 10 11 13 15 15 16 17 16 16 15 14 13 12 11 9 5 5 7 8 7 7 6 5 4 3 2 3 2 0 1 2 1 1 1 1 2 2 2 3 4 5 7 9
8 11 13 15 14 14 14 14 15 14 14 13 12 12 11 10 7 5 6 7 8 8 7 6 5 4 4 4 3 1 1 0 1 1 1 1 2 2 2 3 4 4 3 5
12 12 12 13 14 15 15 15 15 15 15 15 13 13 12 11 8 5 6 8 9 9 8 7 6 5 5 5 4 2 1 2 1 1 2 2 2 2 3 3 3 3 3 3
12 13 15 16 16 16 15 15 15 15 15 15 15 14 13 11 7 4 5 8 9 8 7 6 5 6 7 6 5 3 3 4 4 2 2 2 2 2 3 3 3 3 3 3
10 12 14 15 15 16 16 15 14 15 15 15 15 14 12 10 8 5 4 7 8 8 7 6 6 7 8 7 5 3 3 3 3 2 2 2 2 3 3 4 4 4 4 4
11 12 13 14 14 14 15 15 15 15 15 14 14 13 12 10 8 6 5 7 9 9 7 7 8 9 9 7 5 4 4 4 4 3 3 3 3 3 3 4 4 4 3 3
11 12 13 14 14 14 14 14 15 14 13 14 14 13 12 9 7 5 5 7 7 4 6 9 11 9 9 9 7 5 5 4 4 4 4 4 4 4 4 4 4 4 4 3
12 13 14 14 14 15 14 14 14 14 14 13 13 13 12 11 7 6 6 6 6 6 8 10 9 8 8 8 8 5 5 4 4 4 4 4 4 4 4 5 4 4 4 3
12 12 14 14 14 15 14 13 13 14 14 13 13 13 12 10 8 7 7 5 5 9 8 8 8 9 9 10 6 6 5 5 4 4 4 4 4 4 4 5 4 4 3 3
12 12 14 14 15 15 15 13 13 13 13 14 13 13 11 9 7 6 5 5 7 11 8 7 11 15 14 8 6 6 6 6 5 4 4 4 4 4 4 4 4 4 3 3
13 13 13 14 14 15 15 14 14 12 13 13 12 11 11 8 6 6 4 5 9 12 7 11 18 17 12 7 6 6 6 5 5 4 4 4 4 4 4 4 4 4 4 4
13 13 13 13 13 11 13 14 14 13 13 11 12 11 8 6 6 4 4 7 11 11 9 14 19 16 10 7 7 7 6 5 5 5 4 4 4 4 4 4 4 4 4 4
12 11 10 12 11 10 10 10 10 10 11 11 10 9 7 5 5 4 4 8 13 10 10 11 12 11 8 7 7 7 6 7 6 5 5 5 5 5 5 5 6 5 4 4
11 10 9 9 9 8 9 9 10 10 11 11 12 10 8 5 3 4 6 8 10 10 10 10 10 9 7 7 7 7 6 6 6 5 5 5 5 5 5 6 5 5 5 4
Wind_Direction
300 300 291 283 278 266 255 262 274 294 302 319 335 324 310 301 295 291 281 276 272 267 262 241 223 208 195 187 183 184 190 195 199 200 200 208 209 209 211 215 221 215 214 212
301 299 293 279 278 271 265 286 301 313 319 347 328 317 308 303 299 293 288 285 284 281 272 245 208 190 181 184 185 191 197 201 196 203 198 205 210 213 207 208 217 214 216 214
295 300 291 252 31 52 79 53 25 6 344 333 328 328 332 332 322 314 313 319 326 340 8 78 141 162 168 174 176 197 204 202 202 208 203 205 207 209 206 206 210 213 215 210
287 287 239 88 51 37 101 66 35 9 349 340 330 318 10 8 349 345 7 43 69 77 80 83 94 104 113 126 158 192 211 218 215 218 211 206 206 207 209 209 205 213 214 209
279 281 259 75 17 351 311 68 23 2 353 349 339 327 45 21 8 10 43 71 79 83 84 79 77 83 92 95 96 97 217 258 241 226 218 209 207 207 208 207 204 207 208 208
285 282 33 13 340 323 271 88 10 355 351 350 350 359 358 351 355 27 62 78 86 87 84 78 75 78 81 77 72 60 40 7 306 249 231 221 215 208 204 207 207 207 208 211
307 289 72 4 343 350 42 359 340 341 343 344 343 327 316 325 350 47 70 77 85 85 81 78 79 80 76 69 60 49 41 37 33 11 257 233 216 201 197 203 206 209 208 206
350 350 15 353 1 13 341 325 330 333 334 334 328 325 329 334 2 97 97 90 92 95 90 83 77 77 75 66 56 48 42 40 36 32 25 82 173 188 196 197 201 203 204 196
336 327 299 326 336 336 328 322 325 325 327 328 326 329 332 328 213 151 134 121 117 114 107 96 76 64 71 68 48 42 41 39 33 33 42 46 91 153 178 189 195 195 197 190
324 335 338 331 342 339 329 319 317 318 320 322 324 326 327 315 225 184 169 158 156 148 130 111 90 67 61 56 37 30 35 32 34 31 45 54 48 66 151 180 193 198 203 192
315 334 332 323 332 330 324 319 318 318 317 318 320 322 324 308 240 200 181 178 184 184 159 133 117 74 60 32 4 14 26 34 41 44 46 50 53 32 16 42 21 304 206 197
313 323 314 310 321 324 321 318 317 316 315 317 317 319 323 313 255 205 191 183 191 202 206 198 205 300 84 39 343 357 19 27 36 52 64 70 83 78 49 48 55 48 37 20
297 307 302 301 312 319 316 315 314 311 309 310 314 319 323 319 275 212 197 193 199 204 216 225 231 245 169 159 328 5 17 27 45 60 86 99 108 112 108 81 68 62 58 55
310 312 307 314 317 317 315 313 311 308 308 310 315 318 322 321 292 229 208 198 201 207 215 222 230 226 185 177 186 321 24 69 40 105 114 115 106 109 116 124 116 91 67 62
316 315 308 309 312 316 318 318 318 319 321 320 321 320 322 322 303 255 217 196 196 207 215 219 224 209 177 186 195 193 224 139 121 110 151 138 133 129 111 106 109 111 109 88
318 316 318 322 324 326 327 327 324 322 322 319 319 321 320 316 304 267 217 198 200 209 212 214 217 192 175 183 184 183 153 75 311 193 177 167 158 143 127 124 122 124 122 116
317 322 328 328 328 328 326 322 318 316 315 314 315 315 311 308 301 268 220 207 212 218 212 209 200 172 173 180 184 184 174 152 182 211 186 152 137 130 126 125 123 120 110 92
306 307 311 315 319 320 319 319 316 314 312 310 309 306 305 304 303 287 236 207 205 210 210 199 177 166 169 174 181 184 180 172 176 170 160 143 131 128 124 124 126 125 125 128
305 307 309 312 314 314 315 316 315 313 311 309 307 304 301 296 294 282 239 207 206 208 198 178 160 170 165 163 169 181 182 176 173 171 161 147 167 139 133 127 127 128 133 139
306 308 311 312 314 316 316 314 313 311 311 310 306 301 297 296 293 271 235 221 215 206 164 157 166 168 161 160 177 179 181 181 173 168 164 169 159 144 136 131 134 136 140 142
312 312 313 314 315 315 316 315 313 312 313 310 306 301 298 295 287 260 235 226 199 174 156 155 163 158 159 154 174 173 177 176 172 169 167 167 157 150 145 142 142 141 139 133
313 311 311 313 312 314 318 315 313 313 313 311 307 301 296 290 276 250 231 229 170 160 162 164 160 147 148 156 166 166 174 172 168 167 168 168 164 160 152 146 140 136 134 126
309 309 309 311 313 313 313 314 317 316 314 311 307 302 296 288 275 252 231 193 169 170 172 160 143 142 152 165 161 166 172 171 168 169 170 171 167 159 146 143 136 132 124 114
306 306 305 308 308 308 313 318 318 315 313 309 303 299 294 283 265 239 237 164 160 161 166 143 144 151 165 167 162 168 170 166 164 165 163 167 161 151 142 135 126 119 114 108
299 301 302 306 307 309 311 313 315 318 318 314 312 310 300 280 266 243 202 172 158 160 149 151 154 159 171 164 165 166 164 161 160 161 165 166 158 153 144 138 134 127 117 107
295 296 296 295 297 297 301 307 312 316 320 319 318 317 310 293 259 221 190 168 161 162 151 151 159 171 173 163 162 162 158 153 158 168 169 163 157 151 140 134 131 124 118 115
288 287 286 287 291 297 302 306 309 314 319 320 317 313 306 292 252 199 175 159 159 163 155 154 159 166 161 159 162 163 161 159 162 163 161 158 152 147 143 142 135 129 127 126